Omaha, NE

1:25 PM CST on December 07, 2016 (GMT -0600)
Millard Municipal

Weather History for KMLE - July, 2013

Change the Weather History Date:

Wednesday, July 17, 2013

  Actual Average (KOMA) Record (KOMA)
Temperature  
Mean Temperature 81 °F 77 °F  
Max Temperature 91 °F 88 °F 105 °F (1936)
Min Temperature 71 °F 67 °F 53 °F (2009)
Degree Days  
Heating Degree Days 0 0  
Month to date heating degree days 0  
Since 1 June heating degree days 17  
Since 1 July heating degree days 0  
Cooling Degree Days 16 12  
Month to date cooling degree days 200  
Year to date cooling degree days 512  
Since 1 June cooling degree days 430  
Growing Degree Days 31 (Base 50)    
Moisture  
Dew Point 69 °F    
Average Humidity 67    
Maximum Humidity 94    
Minimum Humidity 44    
Precipitation  
Precipitation 0.00 in 0.13 in 3.72 in (1977)
Month to date precipitation 2.11  
Year to date precipitation 17.57  
Snow  
Snow 0.00 in 0.00 in - ()
Month to date snowfall 0.0  
Since 1 July snowfall 0.0  
Snow Depth -    
Sea Level Pressure  
Sea Level Pressure 30.25 in    
Wind  
Wind Speed 2 mph (SSE)    
Max Wind Speed 10 mph    
Max Gust Speed 18 mph    
Visibility 10 miles    
Events      
T = Trace of Precipitation, MM = Missing Value Source: NWS Daily Summary

Daily Weather History Graph

Daily Weather History Graph

Search for Another Location

Airport or City:

Trip Planner

Search our weather history database for the weather conditions in past years. The results will help you decide how hot, cold, wet, or windy it might be!

Date:

Astronomy

Jul. 17, 2013 Rise Set
Actual Time 6:06 AM CDT 8:54 PM CDT
Civil Twilight 5:34 AM CDT 9:26 PM CDT
Nautical Twilight 4:53 AM CDT 10:07 PM CDT
Astronomical Twilight 4:06 AM CDT 10:54 PM CDT
Moon 3:43 PM CDT (7/17) 1:15 AM CDT (7/17)
Length of Visible Light 15h 52m
Length of Day
14h 47m
Waxing Gibbous, 67% of the Moon is Illuminated
Jul 17
Waxing Gibbous
Jul 22
Full
Jul 29
Last Quarter
Aug 6
New
Aug 14
First Quarter

Hourly Weather History & Observations

Time (CDT) Temp. Heat Index Dew Point Humidity Pressure Visibility Wind Dir Wind Speed Gust Speed Precip Events Conditions
12:15 AM 75.9 °F - 70.0 °F 82% 30.26 in 10.0 mi Calm Calm - N/A   Clear
12:35 AM 75.4 °F - 69.8 °F 83% 30.26 in 10.0 mi Calm Calm - N/A   Clear
12:55 AM 76.1 °F - 70.0 °F 81% 30.26 in 10.0 mi Calm Calm - N/A   Clear
1:15 AM 76.3 °F - 70.2 °F 81% 30.27 in 10.0 mi Calm Calm - N/A   Clear
1:35 AM 75.4 °F - 70.3 °F 84% 30.27 in 10.0 mi Calm Calm - N/A   Clear
1:55 AM 74.3 °F - 70.7 °F 88% 30.26 in 10.0 mi Calm Calm - N/A   Clear
2:15 AM 73.8 °F - 70.9 °F 91% 30.26 in 10.0 mi Calm Calm - N/A   Clear
2:35 AM 73.4 °F - 70.7 °F 91% 30.26 in 10.0 mi Calm Calm - N/A   Clear
2:55 AM 73.4 °F - 70.7 °F 91% 30.27 in 10.0 mi Calm Calm - N/A   Clear
3:15 AM 73.0 °F - 70.5 °F 92% 30.27 in 10.0 mi Calm Calm - N/A   Clear
3:35 AM 72.9 °F - 70.7 °F 93% 30.27 in 10.0 mi Calm Calm - N/A   Clear
3:55 AM 72.9 °F - 70.9 °F 93% 30.27 in 10.0 mi Calm Calm - N/A   Clear
4:15 AM 72.5 °F - 70.7 °F 94% 30.27 in 7.0 mi Calm Calm - N/A   Clear
4:35 AM 72.5 °F - 70.7 °F 94% 30.27 in 7.0 mi Calm Calm - N/A   Scattered Clouds
4:55 AM 73.0 °F - 70.5 °F 92% 30.27 in 10.0 mi Calm Calm - N/A   Clear
5:15 AM 72.3 °F - 70.2 °F 93% 30.27 in 10.0 mi Calm Calm - N/A   Clear
5:35 AM 72.5 °F - 70.3 °F 93% 30.27 in 10.0 mi SE 3.5 mph - N/A   Clear
5:55 AM 72.9 °F - 70.2 °F 91% 30.27 in 10.0 mi Calm Calm - N/A   Clear
6:15 AM 72.5 °F - 70.2 °F 92% 30.28 in 10.0 mi Calm Calm - N/A   Clear
6:35 AM 71.8 °F - 70.0 °F 94% 30.28 in 7.0 mi Calm Calm - N/A   Clear
6:55 AM 73.0 °F - 70.5 °F 92% 30.28 in 10.0 mi Calm Calm - N/A   Clear
7:15 AM 74.3 °F - 70.7 °F 88% 30.29 in 10.0 mi ESE 3.5 mph - N/A   Clear
7:35 AM 75.4 °F - 70.9 °F 86% 30.29 in 10.0 mi Calm Calm - N/A   Clear
7:55 AM 77.4 °F - 71.1 °F 81% 30.30 in 10.0 mi Calm Calm - N/A   Clear
8:15 AM 79.0 °F - 70.9 °F 76% 30.30 in 10.0 mi Calm Calm - N/A   Clear
8:35 AM 79.3 °F - 68.9 °F 70% 30.31 in 10.0 mi Calm Calm - N/A   Clear
8:55 AM 80.6 °F 83.6 °F 69.3 °F 68% 30.31 in 10.0 mi Calm Calm - N/A   Clear
9:15 AM 81.5 °F 84.9 °F 69.6 °F 67% 30.31 in 10.0 mi Calm Calm - N/A   Clear
9:35 AM 81.7 °F 85.2 °F 69.6 °F 67% 30.31 in 10.0 mi Calm Calm - N/A   Clear
9:55 AM 81.9 °F 85.2 °F 69.3 °F 65% 30.31 in 10.0 mi Calm Calm - N/A   Clear
10:15 AM 83.5 °F 87.4 °F 69.8 °F 63% 30.30 in 10.0 mi Calm Calm - N/A   Clear
10:35 AM 84.7 °F 88.2 °F 68.7 °F 58% 30.30 in 10.0 mi Calm Calm - N/A   Clear
10:55 AM 86.0 °F 89.1 °F 67.8 °F 54% 30.30 in 10.0 mi Calm Calm - N/A   Clear
11:15 AM 86.9 °F 89.9 °F 67.1 °F 52% 30.30 in 10.0 mi WSW 4.6 mph - N/A   Clear
11:35 AM 88.0 °F 91.0 °F 67.3 °F 50% 30.30 in 10.0 mi South 5.8 mph - N/A   Clear
11:55 AM 88.2 °F 90.6 °F 66.4 °F 48% 30.29 in 10.0 mi SW 4.6 mph - N/A   Clear
12:15 PM 88.2 °F 90.6 °F 66.2 °F 48% 30.29 in 10.0 mi SW 3.5 mph - N/A   Clear
12:35 PM 88.9 °F 92.2 °F 67.6 °F 49% 30.29 in 10.0 mi SW 9.2 mph - N/A   Clear
12:55 PM 88.9 °F 92.2 °F 67.6 °F 49% 30.28 in 10.0 mi South 8.1 mph - N/A   Scattered Clouds
1:15 PM 89.4 °F 92.7 °F 67.3 °F 48% 30.28 in 10.0 mi SSW 8.1 mph - N/A   Scattered Clouds
1:35 PM 90.0 °F 94.1 °F 68.5 °F 49% 30.28 in 10.0 mi SW 3.5 mph - N/A   Scattered Clouds
1:55 PM 90.3 °F 93.9 °F 67.5 °F 47% 30.27 in 10.0 mi South 8.1 mph - N/A   Clear
2:15 PM 88.7 °F 91.9 °F 67.5 °F 49% 30.26 in 10.0 mi South 8.1 mph - N/A   Scattered Clouds
2:35 PM 90.5 °F 94.2 °F 67.8 °F 47% 30.26 in 10.0 mi South 8.1 mph - N/A   Scattered Clouds
2:55 PM 90.9 °F 94.4 °F 67.6 °F 46% 30.25 in 10.0 mi South 8.1 mph - N/A   Scattered Clouds
3:15 PM 89.8 °F 92.9 °F 67.3 °F 47% 30.24 in 10.0 mi SE 6.9 mph - N/A   Scattered Clouds
3:35 PM 90.3 °F 93.4 °F 67.1 °F 46% 30.24 in 10.0 mi South 8.1 mph - N/A   Scattered Clouds
3:55 PM 91.4 °F 94.5 °F 66.7 °F 44% 30.23 in 10.0 mi SSE 9.2 mph - N/A   Clear
4:15 PM 91.0 °F 94.3 °F 67.3 °F 45% 30.23 in 10.0 mi SSE 10.4 mph - N/A   Clear
4:35 PM 90.1 °F 92.7 °F 66.2 °F 45% 30.22 in 10.0 mi South 8.1 mph - N/A   Scattered Clouds
4:55 PM 91.6 °F 95.2 °F 67.5 °F 45% 30.22 in 10.0 mi South 8.1 mph - N/A   Scattered Clouds
5:15 PM 90.9 °F 94.8 °F 68.2 °F 47% 30.21 in 10.0 mi SSE 9.2 mph 18.4 mph N/A   Scattered Clouds
5:35 PM 90.9 °F 95.3 °F 68.7 °F 48% 30.21 in 10.0 mi SSE 10.4 mph - N/A   Clear
5:55 PM 90.5 °F 95.1 °F 68.7 °F 49% 30.20 in 10.0 mi SSE 10.4 mph - N/A   Clear
6:15 PM 90.3 °F 95.2 °F 69.3 °F 50% 30.20 in 10.0 mi SSE 8.1 mph - N/A   Clear
6:35 PM 90.5 °F 94.2 °F 67.6 °F 47% 30.19 in 10.0 mi SSE 8.1 mph - N/A   Clear
6:55 PM 90.0 °F 94.5 °F 68.9 °F 50% 30.19 in 10.0 mi SE 8.1 mph - N/A   Clear
7:15 PM 89.4 °F 94.4 °F 69.8 °F 52% 30.19 in 10.0 mi SE 9.2 mph - N/A   Clear
7:35 PM 88.2 °F 93.7 °F 70.5 °F 56% 30.19 in 10.0 mi ESE 8.1 mph - N/A   Clear
7:55 PM 87.3 °F 92.8 °F 70.9 °F 58% 30.18 in 10.0 mi SE 4.6 mph - N/A   Clear
8:15 PM 86.7 °F 92.1 °F 71.1 °F 59% 30.18 in 10.0 mi SE 5.8 mph - N/A   Clear
8:35 PM 85.3 °F 90.8 °F 71.2 °F 63% 30.18 in 10.0 mi SE 4.6 mph - N/A   Clear
8:55 PM 84.2 °F 89.0 °F 70.7 °F 64% 30.18 in 10.0 mi SE 5.8 mph - N/A   Clear
9:15 PM 84.0 °F 88.7 °F 70.7 °F 64% 30.18 in 10.0 mi SE 4.6 mph - N/A   Clear
9:35 PM 82.4 °F 86.7 °F 70.9 °F 68% 30.18 in 10.0 mi SE 4.6 mph - N/A   Clear
9:55 PM 82.2 °F 86.4 °F 70.9 °F 68% 30.18 in 10.0 mi SE 3.5 mph - N/A   Clear
10:15 PM 81.7 °F 85.6 °F 70.7 °F 69% 30.18 in 10.0 mi SE 4.6 mph - N/A   Clear
10:35 PM 81.5 °F 85.5 °F 70.9 °F 70% 30.18 in 10.0 mi ESE 3.5 mph - N/A   Clear
10:55 PM 80.6 °F 84.2 °F 70.9 °F 72% 30.18 in 10.0 mi ESE 3.5 mph - N/A   Clear
11:15 PM 80.1 °F 83.4 °F 70.9 °F 73% 30.18 in 10.0 mi Calm Calm - N/A   Clear
11:35 PM 79.7 °F - 70.7 °F 74% 30.18 in 10.0 mi ESE 4.6 mph - N/A   Clear
11:55 PM 79.2 °F - 70.5 °F 75% 30.18 in 10.0 mi ESE 4.6 mph - N/A   Clear